Regional Weather Roundup
Issued by NWS

Home | Current Version | Previous Version | Text Only | Print | Product List | Glossary Off
Versions: 1 2 3 4 5 6 7 8 9 10 11 12 13 14 15 16 17 18 19 20 21 22 23 24 25 26 27 28

000
ASUS45 KGTF 252010
RWRMT
MONTANA HOURLY WEATHER ROUNDUP
NATIONAL WEATHER SERVICE GREAT FALLS MT
200 PM MDT SAT APR 25 2015

NOTE: "FAIR" INDICATES FEW OR NO CLOUDS BELOW 12000 FEET WITH NO
SIGNIFICANT WEATHER AND/OR OBSTRUCTIONS TO VISIBILITY.

MTZ001>007-043-252100-
WEST OF THE DIVIDE

CITY           SKY/WX    TMP DP  RH WIND       PRES   REMARKS
KALISPELL      MOCLDY    53  24  32 S10       29.81F
MISSOULA       CLOUDY    51  20  29 W7        29.81F
BUTTE          PTSUNNY   43  20  39 CALM      29.79F
DEER LODGE       N/A     48  23  37 SE3       29.83F
EUREKA           N/A     52  27  37 SW5       29.83S
HAMILTON         N/A     52  18  25 NW5       29.79F
LIBBY            N/A     54  27  35 E6        29.83S
$$

MTZ008-052>055-252100-
SOUTHWEST MONTANA

CITY           SKY/WX    TMP DP  RH WIND       PRES   REMARKS
BOZEMAN        CLOUDY    43  33  68 VRB6      29.82F
DILLON         PTSUNNY   44  27  51 CALM      29.77F
$$

MTZ009-010-012-014-046-048-049-054-252100-
EAST SLOPES AND CENTRAL MONTANA

CITY           SKY/WX    TMP DP  RH WIND       PRES   REMARKS
CUT BANK       MOSUNNY   49  27  42 NE12      29.81F
GREAT FALLS    CLOUDY    50  27  40 N7        29.80S
MALMSTROM AFB  MOSUNNY   50  24  37 W8        29.81R
HELENA         CLOUDY    52  23  32 NE5G17    29.77F
$$

MTZ011-013-016-021-045-047-050-051-252100-
NORTH CENTRAL MONTANA

CITY           SKY/WX    TMP DP  RH WIND       PRES   REMARKS
HAVRE          MOSUNNY   52  33  48 NW20      29.79R
CHINOOK          N/A     54  34  47 W14G23    29.77R
FORT BENTON      N/A     54  27  35 W10G16    29.80R
$$

MTZ017>020-022>042-056>058-061-062-252100-
EASTERN PLAINS

CITY           SKY/WX    TMP DP  RH WIND       PRES   REMARKS
BAKER          CLOUDY    51  44  77 SE18      29.70R
BILLINGS       CLOUDY    43  36  76 NE3       29.82R
GLASGOW        RAIN      43  41  93 NW10      29.73R FOG
JORDAN           N/A     42  40  92 NW5       29.77R
LIVINGSTON     CLOUDY    47  35  63 NW9       29.80R
MILES CITY     RAIN      42  39  89 NW20G26   29.75R
SIDNEY         PTSUNNY   57  43  58 E17       29.72R
WOLF POINT     PTSUNNY   58  42  55 W17G26    29.68R
BIG TIMBER       N/A     45  34  65 NE5       29.81R
FORSYTH          N/A     43  41  93 W12       29.80R
PLENTYWOOD       N/A     52  43  71 E24       29.71R
POPLAR           N/A     61  43  51 SW17      29.66S
$$

REGIONAL REPORTS...DAKOTAS

CITY           SKY/WX    TMP DP  RH WIND       PRES   REMARKS
WILLISTON      CLOUDY    51  42  71 SE16      29.75S
MINOT          CLOUDY    56  39  53 E16       29.80S
DICKINSON      CLOUDY    48  42  80 SE18      29.74R
BEACH          CLOUDY    48  48 100 SE20G25   29.72S
CROSBY         CLOUDY    48  43  81 SE20G26   29.79R
WATFORD CITY   CLOUDY    52  43  71 SE16      29.73S
BISMARCK       CLOUDY    49  42  77 SE16      29.82S
GRAND FORKS    MOSUNNY   62  38  40 S14       29.87F
FARGO          CLOUDY    56  39  53 SE9       29.88S
BUFFALO SD       N/A     49  44  83 SE18      29.66S
RAPID CITY     CLOUDY    51  46  83 SE13      29.70F
$$

REGIONAL REPORTS...WYOMING/IDAHO/WASHINGTON

CITY           SKY/WX    TMP DP  RH WIND       PRES   REMARKS
GILLETTE       CLOUDY    46  39  76 NW20      29.74R
SHERIDAN       CLOUDY    44  34  67 NW15      29.80R
BUFFALO WY     CLOUDY    40  34  79 N21       29.78R
CODY           CLOUDY    45  37  76 N12       29.78S
YELLOWSTONE LA   N/A     33  25  72 CALM      29.83R
IDAHO FALLS    PTSUNNY   51  26  37 S8        29.79F
SALMON         MOSUNNY   50  21  32 NW5       29.75F
BOISE          PTSUNNY   58  27  30 NW14G29   29.78F
SPOKANE        CLOUDY    49  29  46 W10       29.86S
$$

REGIONAL REPORTS...ALBERTA

CITY           SKY/WX    TMP DP  RH WIND       PRES   REMARKS
EDMONTON       MOSUNNY   41  16  36 E8        30.00R
CALGARY        CLOUDY    39  28  65 N18       29.89S WCI  30
LETHBRIDGE     PTSUNNY   46  32  57 NW16      29.86S
MEDICINE HAT   CLOUDY    39  34  81 NW9G17    29.87R
$$

REGIONAL REPORTS...SASKATCHEWAN

CITY           SKY/WX    TMP DP  RH WIND       PRES   REMARKS
SWIFT CURRENT  LGT RAIN  34  34 100 N14       29.77R WCI  24
REGINA         CLOUDY    46  43  87 E20G29    29.77F
SASKATOON      LGT SNOW  30  28  93 NE23G30   29.90F VSB 1   WCI  17
$$



USA.gov is the U.S. government's official web portal to all federal, state and local government web resources and services.